Surface/Precipitation History
11/26/2014 04:44  to  11/27/2014 04:44
Change End Date:
Date/Time
(MST)
Sf
Temp Chem Water Layer Surface Precipitation
Sf Sub Frz Factor Pct Depth IcePct Cond Salin Type Intens Accum Rate
11/27/2014 04:32 Ice Warning 31.3F - 32F 30 0% - 100% 0 mhos 5 None None - -
11/27/2014 04:27 Ice Warning 31.3F - 32F 30 0% - 100% 0 mhos 6 None None - -
11/27/2014 04:17 Ice Warning 31.3F - 32F 15 0% - 100% 0 mhos 6 None None - -
11/27/2014 04:07 Ice Warning 31.1F - 32F 20 0% - 100% 0 mhos 7 None None - -
11/27/2014 04:01 Ice Warning 30.7F - 32F 20 0% - 100% 0 mhos 9 None None - -
11/27/2014 03:57 Ice Warning 30.7F - 32F 25 0% - 100% 0 mhos 9 None None - -
11/27/2014 03:47 Ice Warning 30.4F - 32F 35 0% - 100% 0 mhos 10 None None - -
11/27/2014 03:37 Ice Warning 30.4F - 32F 35 0% - 100% 0 mhos 9 None None - -
11/27/2014 03:33 Ice Warning 30.4F - 32F 25 0% - 100% 0 mhos 9 None None - -
11/27/2014 03:27 Ice Warning 30.6F - 32F 30 0% - 100% 0 mhos 9 None None - -
11/27/2014 03:17 Ice Warning 30.4F - 32F 20 0% - 100% 0 mhos 9 None None - -
11/27/2014 03:07 Ice Warning 30.6F - 32F 20 0% - 100% 0 mhos 9 None None - -
11/27/2014 03:03 Ice Warning 30.6F - 32F 20 0% - 100% 0 mhos 9 None None - -
11/27/2014 02:57 Ice Warning 30.9F - 32F 25 0% - 100% 0 mhos 9 None None - -
11/27/2014 02:47 Ice Warning 30.9F - 32F 30 0% - 100% 0 mhos 9 None None - -
Date/Time
(MST)
Sf
Temp Chem Water Layer Surface Precipitation
Sf Sub Frz Factor Pct Depth IcePct Cond Salin Type Intens Accum Rate
11/27/2014 02:37 Ice Warning 30.6F - 32F 30 0% - 100% 0 mhos 7 None None - -
11/27/2014 02:34 Ice Warning 30.6F - 32F 30 0% - 100% 0 mhos 7 None None - -
11/27/2014 02:27 Ice Warning 31.1F - 32F 30 0% - 100% 0 mhos 7 None None - -
11/27/2014 02:17 Ice Warning 31.5F - 32F 25 0% - 99% 0 mhos 9 None None - -
11/27/2014 02:11 Ice Warning 31.3F - 32F 30 0% - 99% 0 mhos 9 None None - -
11/27/2014 02:07 Ice Warning 31.5F - 32F 35 0% - 99% 0 mhos 9 None None - -
11/27/2014 01:57 Ice Warning 31.3F - 32F 45 0% - 99% 0 mhos 10 None None - -
11/27/2014 01:47 Ice Warning 31.5F - 32F 50 0% - 99% 0 mhos 10 None None - -
11/27/2014 01:37 Ice Warning 31.5F - 32F 55 0% - 99% 0 mhos 11 None None - -
11/27/2014 01:31 Ice Warning 31.5F - 32F 60 0% - 99% 0 mhos 11 None None - -
11/27/2014 01:27 Ice Warning 31.5F - 32F 60 0% - 99% 0 mhos 11 None None - -
11/27/2014 01:17 Ice Warning 31.3F - 32F 65 0% - 99% 0 mhos 12 None None - -
11/27/2014 01:07 Ice Warning 31.1F - 32F 65 0% - 99% 0 mhos 12 None None - -
11/27/2014 01:01 Ice Warning 31.1F - 32F 65 0% - 99% 0 mhos 13 None None - -
11/27/2014 00:57 Ice Warning 31.6F - 32F 65 0% - 99% 0 mhos 12 None None - -
Date/Time
(MST)
Sf
Temp Chem Water Layer Surface Precipitation
Sf Sub Frz Factor Pct Depth IcePct Cond Salin Type Intens Accum Rate
11/27/2014 00:47 Ice Warning 31.6F - 32F 65 0% - 98% 0 mhos 13 None None - -
11/27/2014 00:40 Ice Warning 31.5F - 32F 65 0% - 99% 0 mhos 14 None None - -
11/27/2014 00:36 Ice Warning 31.5F - 32F 65 0% - 99% 0 mhos 14 None None - -
11/27/2014 00:26 Ice Warning 31.3F - 32F 70 0% - 99% 0 mhos 16 None None - -
11/27/2014 00:16 Ice Warning 30.9F - 32F 75 0% - 99% 0 mhos 17 None None - -
11/27/2014 00:06 Ice Warning 30.9F - 32F 70 0% - 99% 0 mhos 18 None None - -
11/26/2014 23:59 Ice Warning 30.7F - 32F 70 0% - 99% 0 mhos 19 None None - -
11/26/2014 23:56 Ice Warning 30.6F - 32F 70 0% - 99% 0 mhos 19 None None - -
11/26/2014 23:46 Ice Warning 30.0F - 32F 70 0% - 100% 0 mhos 21 None None - -
11/26/2014 23:41 Ice Warning 29.8F - 32F 70 0% - 100% 0 mhos 22 None None - -
11/26/2014 23:36 Ice Warning 29.8F - 32F 70 0% - 100% 0 mhos 22 None None - -
11/26/2014 23:26 Ice Warning 30.2F - 32F 65 0% - 99% 0 mhos 22 None None - -
11/26/2014 23:16 Ice Warning 30.6F - 32F 70 0% - 99% 0 mhos 22 None None - -
11/26/2014 23:11 Ice Warning 30.6F - 32F 70 0% - 99% 0 mhos 23 None None - -
11/26/2014 23:06 Ice Warning 30.6F - 32F 75 0% - 99% 0 mhos 24 None None - -
Date/Time
(MST)
Sf
Temp Chem Water Layer Surface Precipitation
Sf Sub Frz Factor Pct Depth IcePct Cond Salin Type Intens Accum Rate
11/26/2014 22:56 Ice Warning 30.4F - 32F 70 0% - 99% 0 mhos 25 None None - -
11/26/2014 22:46 Ice Warning 30.4F - 32F 70 0% - 99% 0 mhos 27 None None - -
11/26/2014 22:36 Ice Warning 30.4F - 32F 70 0% - 99% 0 mhos 26 None None - -
11/26/2014 22:31 Ice Warning 30.6F - 32F 80 0% - 99% 0 mhos 27 None None - -
11/26/2014 22:26 Ice Warning 30.7F - 32F 75 0% - 99% 0 mhos 30 None None - -
11/26/2014 22:16 Ice Warning 31.3F - 32F 80 0% - 98% 0 mhos 34 None None - -
11/26/2014 22:06 Ice Warning 31.3F - 32F 85 0% - 97% 0 mhos 49 None None - -
11/26/2014 22:02 Ice Warning 31.1F - 32F 95 0% - 98% 0 mhos 52 None None - -
11/26/2014 21:56 Ice Warning 31.5F - 32F 85 0% - 96% 1 mhos 54 None None - -
11/26/2014 21:46 Ice Warning 30.7F - 32F 90 0% - 98% 1 mhos 60 None None - -
11/26/2014 21:36 Ice Warning 30.7F - 32F 95 0% - 98% 1 mhos 59 None None - -
11/26/2014 21:31 Ice Warning 31.1F - 32F 95 0% - 97% 1 mhos 55 None None - -
11/26/2014 21:26 Ice Warning 30.7F - 32F 95 0% - 98% 1 mhos 56 None None - -
11/26/2014 21:16 Ice Warning 31.1F - 32F 90 0% - 98% 0 mhos 51 None None - -
11/26/2014 21:06 Ice Warning 31.3F - 32F 85 0% - 97% 0 mhos 52 None None - -
Date/Time
(MST)
Sf
Temp Chem Water Layer Surface Precipitation
Sf Sub Frz Factor Pct Depth IcePct Cond Salin Type Intens Accum Rate
11/26/2014 21:01 Ice Warning 31.6F - 32F 90 0% - 95% 1 mhos 57 None None - -
11/26/2014 20:56 Ice Warning 31.6F - 32F 90 0% - 95% 1 mhos 59 None None - -
11/26/2014 20:46 Ice Warning 31.6F - 32F 95 0% - 92% 1 mhos 58 None None - -
11/26/2014 20:36 Ice Warning 31.6F - 32F 90 0% - 94% 1 mhos 60 None None - -
11/26/2014 20:31 Chemically Wet 31.8F - 32F 85 0% - 83% 1 mhos 57 None None - -
11/26/2014 20:26 Ice Warning 31.6F - 32F 95 0% - 95% 1 mhos 53 None None - -
11/26/2014 20:16 Chemically Wet 31.8F - 32F 90 0% - 85% 0 mhos 50 None None - -
11/26/2014 20:06 Ice Warning 31.6F - 32F 75 0% - 96% 0 mhos 49 None None - -
11/26/2014 20:03 Ice Warning 31.5F - 32F 75 0% - 97% 0 mhos 50 None None - -
11/26/2014 19:56 Ice Warning 31.6F - 32F 75 0% - 95% 1 mhos 52 None None - -
11/26/2014 19:46 Ice Warning 31.8F - 32F 90 0% - 86% 0 mhos 46 None None - -
11/26/2014 19:36 Ice Warning 31.8F - 32F 95 0% - 86% 0 mhos 46 None None - -
11/26/2014 19:32 Ice Warning 31.5F - 32F 75 0% - 97% 0 mhos 47 None None - -
11/26/2014 19:26 Ice Warning 31.8F - 32F 80 0% - 86% 0 mhos 46 None None - -
11/26/2014 19:15 Ice Warning 31.3F - 32F 85 0% - 96% 1 mhos 73 None None - -
Date/Time
(MST)
Sf
Temp Chem Water Layer Surface Precipitation
Sf Sub Frz Factor Pct Depth IcePct Cond Salin Type Intens Accum Rate
11/26/2014 19:05 Ice Warning 31.1F - 32F 95 0% - 95% 1 mhos 98 None None - -
11/26/2014 19:02 Ice Warning 30.9F - 32F 95 0% - 95% 1 mhos 112 None None - -
11/26/2014 18:55 Ice Warning 31.1F - 32F 95 0% - 94% 1 mhos 119 None None - -
11/26/2014 18:45 Ice Warning 31.6F - 32F 95 0% - 90% 1 mhos 110 None None - -
11/26/2014 18:35 Ice Warning 31.3F - 32F 95 0% - 92% 1 mhos 143 None None - -
11/26/2014 18:32 Ice Warning 31.5F - 32F 95 0% - 91% 1 mhos 137 None None - -
11/26/2014 18:25 Ice Warning 31.5F - 32F 75 0% - 90% 1 mhos 149 None None - -
11/26/2014 18:15 Chemically Wet 31.5F - 32F 95 1% - 80% 3 mhos 290 None None - -
11/26/2014 18:05 Ice Warning 31.1F - 32F 95 1% - 91% 2 mhos 183 None None - -
11/26/2014 18:02 Ice Warning 31.3F - 32F 95 1% - 90% 2 mhos 188 None None - -
11/26/2014 17:55 Ice Warning 31.5F - 32F 95 1% - 87% 2 mhos 182 None None - -
11/26/2014 17:45 Chemically Wet 31.6F - 32F 95 0% - 81% 1 mhos 134 None None - -
11/26/2014 17:35 Ice Warning 31.3F - 32F 50 0% - 99% 0 mhos 19 None None - -
11/26/2014 17:31 Ice Warning 31.5F - 32F 50 0% - 99% 0 mhos 14 None None - -
11/26/2014 17:25 Ice Warning 31.8F - 32F 50 0% - 97% 0 mhos 11 None None - -
Date/Time
(MST)
Sf
Temp Chem Water Layer Surface Precipitation
Sf Sub Frz Factor Pct Depth IcePct Cond Salin Type Intens Accum Rate
11/26/2014 17:15 Ice Warning 31.8F - 32F 50 0% - 97% 0 mhos 11 None None - -
11/26/2014 17:11 Wet 32.2F - 32F 35 0% 0.00 in 0% 0 mhos 12 None None - -
11/26/2014 17:05 Wet 32.4F - 32F 50 0% 0.00 in 0% 0 mhos 16 None None - -
11/26/2014 17:01 Wet 32.7F - 32F 35 0% 0.00 in 0% 0 mhos 19 None None - -
11/26/2014 16:55 Wet 32.9F - 32F 40 0% 0.00 in 0% 0 mhos 33 None None - -
11/26/2014 16:45 Wet 33.6F - 32F 35 0% 0.00 in 0% 0 mhos 36 None None - -
11/26/2014 16:41 Wet 34.0F - 32F 45 0% 0.00 in 0% 0 mhos 34 None None - -
11/26/2014 16:35 Wet 34.0F - 32F 40 0% 0.00 in 0% 0 mhos 22 None None - -
11/26/2014 16:31 Wet 34.3F - 32F 45 0% 0.00 in 0% 0 mhos 22 None None - -
11/26/2014 16:25 Wet 34.9F - 32F 40 0% 0.00 in 0% 0 mhos 16 None None - -
11/26/2014 16:15 Wet 35.8F - 32F 30 0% 0.00 in 0% 0 mhos 18 None None - -
11/26/2014 16:11 Wet 36.1F - 32F 35 0% 0.00 in 0% 0 mhos 23 None None - -
11/26/2014 16:05 Wet 37.4F - 32F 40 0% 0.00 in 0% 0 mhos 16 None None - -
11/26/2014 16:01 Wet 37.6F - 32F 35 0% 0.00 in 0% 0 mhos 10 None None - -
11/26/2014 15:55 Wet 38.1F - 32F 30 0% 0.00 in 0% 0 mhos 11 None None - -
Date/Time
(MST)
Sf
Temp Chem Water Layer Surface Precipitation
Sf Sub Frz Factor Pct Depth IcePct Cond Salin Type Intens Accum Rate
11/26/2014 15:45 Wet 38.8F - 32F 25 0% 0.00 in 0% 0 mhos 10 None None - -
11/26/2014 15:41 Wet 39.2F - 32F 35 0% 0.00 in 0% 0 mhos 11 None None - -
11/26/2014 15:35 Wet 40.1F - 32F 30 0% 0.00 in 0% 0 mhos 13 None None - -
11/26/2014 15:31 Wet 41.0F - 32F 30 0% 0.00 in 0% 0 mhos 14 None None - -
11/26/2014 15:25 Wet 41.4F - 32F 45 0% 0.00 in 0% 0 mhos 12 None None - -
11/26/2014 15:15 Wet 42.1F - 32F 45 0% 0.00 in 0% 0 mhos 19 None None - -
11/26/2014 15:05 Wet 41.9F - 32F 50 0% 0.00 in 0% 0 mhos 21 None None - -
11/26/2014 15:01 Wet 41.7F - 32F 55 0% 0.00 in 0% 0 mhos 27 None None - -
11/26/2014 14:55 Wet 41.2F - 32F 50 0% 0.00 in 0% 0 mhos 39 None None - -
11/26/2014 14:45 Wet 42.3F - 32F 40 0% 0.00 in 0% 1 mhos 65 None None - -
11/26/2014 14:41 Wet 42.1F - 32F 50 0% 0.00 in 0% 1 mhos 70 None None - -
11/26/2014 14:35 Wet 43.3F - 32F 50 0% 0.00 in 0% 1 mhos 99 None None - -
11/26/2014 14:31 Wet 42.6F - 32F 55 0% 0.00 in 0% 1 mhos 123 None None - -
11/26/2014 14:25 Wet 42.3F - 32F 75 0% 0.00 in 0% 1 mhos 124 None None - -
11/26/2014 14:15 Wet 43.3F - 32F 75 1% 0.00 in 0% 2 mhos 155 None None - -
Date/Time
(MST)
Sf
Temp Chem Water Layer Surface Precipitation
Sf Sub Frz Factor Pct Depth IcePct Cond Salin Type Intens Accum Rate
11/26/2014 14:05 Wet 43.7F - 32F 50 0% 0.00 in 0% 1 mhos 120 None None - -
11/26/2014 14:01 Wet 42.4F - 32F 65 0% 0.00 in 0% 1 mhos 127 None None - -
11/26/2014 13:55 Wet 42.6F - 32F 95 0% 0.00 in 0% 1 mhos 103 None None - -
11/26/2014 13:45 Wet 41.5F - 32F 95 1% 0.00 in 0% 3 mhos 224 None None - -
11/26/2014 13:41 Wet 41.2F - 32F 95 0% 0.00 in 0% 1 mhos 113 None None - -
11/26/2014 13:35 Wet 40.3F - 32F 60 0% 0.00 in 0% 1 mhos 133 None None - -
11/26/2014 13:31 Wet 40.5F - 32F 95 1% 0.00 in 0% 2 mhos 151 None None - -
11/26/2014 13:24 Wet 39.6F - 32F 95 1% 0.00 in 0% 2 mhos 203 None None - -
11/26/2014 13:14 Wet 39.6F - 32F 95 1% 0.00 in 0% 2 mhos 183 None None - -
11/26/2014 13:11 Wet 40.5F - 32F 95 0% 0.00 in 0% 2 mhos 138 None None - -
11/26/2014 13:04 Wet 39.7F - 32F 85 0% 0.00 in 0% 1 mhos 105 None None - -
11/26/2014 13:01 Wet 40.1F - 32F 95 1% 0.00 in 0% 3 mhos 289 None None - -
11/26/2014 12:54 Wet 40.1F - 32F 95 0% 0.00 in 0% 1 mhos 124 None None - -
11/26/2014 12:44 Wet 38.7F - 32F 95 1% 0.00 in 0% 3 mhos 254 None None - -
11/26/2014 12:41 Wet 38.5F - 32F 95 1% 0.00 in 0% 2 mhos 164 None None - -
Date/Time
(MST)
Sf
Temp Chem Water Layer Surface Precipitation
Sf Sub Frz Factor Pct Depth IcePct Cond Salin Type Intens Accum Rate
11/26/2014 12:34 Wet 37.2F - 32F 95 1% 0.00 in 0% 3 mhos 275 None None - -
11/26/2014 12:31 Wet 37.4F - 32F 95 1% 0.00 in 0% 2 mhos 211 None None - -
11/26/2014 12:24 Wet 36.7F - 32F 95 2% 0.00 in 0% 5 mhos 488 None None - -
11/26/2014 12:14 Wet 36.5F - 32F 95 1% 0.00 in 0% 4 mhos 398 None None - -
11/26/2014 12:11 Wet 35.8F - 32F 95 1% 0.00 in 0% 2 mhos 197 None None - -
11/26/2014 12:04 Wet 34.5F - 32F 95 1% 0.00 in 0% 3 mhos 259 None None - -
11/26/2014 12:01 Wet 35.2F - 32F 95 1% 0.00 in 0% 4 mhos 339 None None - -
11/26/2014 11:54 Wet 34.9F - 32F 95 1% 0.00 in 0% 2 mhos 181 None None - -
11/26/2014 11:44 Wet 34.2F - 32F 95 1% 0.00 in 0% 2 mhos 212 None None - -
11/26/2014 11:42 Wet 33.8F - 32F 95 1% 0.00 in 0% 2 mhos 188 None None - -
11/26/2014 11:34 Wet 32.9F - 32F 95 1% 0.00 in 0% 3 mhos 327 None None - -
11/26/2014 11:31 Wet 33.3F - 32F 95 1% 0.00 in 0% 3 mhos 292 None None - -
11/26/2014 11:24 Wet 33.4F - 32F 95 1% 0.00 in 0% 2 mhos 244 None None - -
11/26/2014 11:14 Wet 32.9F - 32F 95 1% 0.00 in 0% 3 mhos 264 None None - -
11/26/2014 11:11 Wet 32.7F - 32F 95 0% 0.00 in 0% 1 mhos 138 None None - -
Date/Time
(MST)
Sf
Temp Chem Water Layer Surface Precipitation
Sf Sub Frz Factor Pct Depth IcePct Cond Salin Type Intens Accum Rate
11/26/2014 11:04 Chemically Wet 31.8F - 32F 95 2% 0.00 in 0% 4 mhos 452 None None - -
11/26/2014 11:01 Wet 32.0F - 32F 95 1% 0.00 in 0% 4 mhos 447 None None - -
11/26/2014 10:54 Chemically Wet 31.6F - 32F 95 2% 0.00 in 0% 5 mhos 475 None None - -
11/26/2014 10:44 Chemically Wet 31.5F - 31F 95 2% - 53% 7 mhos 686 None None - -
11/26/2014 10:41 Ice Warning 31.3F - 32F 95 0% - 92% 1 mhos 137 None None - -
11/26/2014 10:34 Ice Warning 31.1F - 32F 95 1% - 91% 2 mhos 197 None None - -
11/26/2014 10:31 Ice Warning 30.7F - 32F 95 1% - 94% 2 mhos 178 None None - -
11/26/2014 10:24 Ice Warning 30.7F - 32F 95 0% - 98% 0 mhos 51 None None - -
11/26/2014 10:14 Ice Warning 30.4F - 32F 95 0% - 99% 0 mhos 20 None None - -
11/26/2014 10:11 Ice Warning 30.4F - 32F 95 0% - 100% 0 mhos 14 None None - -
11/26/2014 10:04 Ice Warning 30.0F - 32F 95 0% - 100% 0 mhos 10 None None - -
11/26/2014 10:01 Ice Warning 29.8F - 32F 95 0% - 100% 0 mhos 10 None None - -
11/26/2014 09:54 Ice Warning 29.7F - 32F 95 0% - 100% 0 mhos 6 None None - -
11/26/2014 09:44 Ice Warning 29.3F - 32F 95 0% - 100% 0 mhos 6 None None - -
11/26/2014 09:41 Ice Warning 29.3F - 32F 95 0% - 100% 0 mhos 6 None None - -
Date/Time
(MST)
Sf
Temp Chem Water Layer Surface Precipitation
Sf Sub Frz Factor Pct Depth IcePct Cond Salin Type Intens Accum Rate
11/26/2014 09:34 Ice Warning 29.1F - 32F 85 0% - 100% 0 mhos 6 None None - -
11/26/2014 09:31 Ice Warning 28.9F - 32F 95 0% - 100% 0 mhos 5 Yes - - -
11/26/2014 09:24 Ice Warning 28.8F - 32F 35 0% - 100% 0 mhos 5 Yes - - -
11/26/2014 09:14 Ice Warning 28.8F - 32F 20 0% - 100% 0 mhos 5 Yes - - -
11/26/2014 09:11 Ice Warning 28.6F - 32F 20 0% - 100% 0 mhos 5 Yes - - -
11/26/2014 09:04 Ice Warning 28.8F - 32F 20 0% - 100% 0 mhos 5 None None - -
11/26/2014 09:01 Ice Warning 28.8F - 32F 20 0% - 100% 0 mhos 5 Yes - - -
11/26/2014 08:54 Ice Warning 28.2F - 32F 20 0% - 100% 0 mhos 5 Yes - - -
11/26/2014 08:44 Ice Warning 28.2F - 32F 20 0% - 100% 0 mhos 5 Yes - - -
11/26/2014 08:41 Ice Warning 28.2F - 32F 20 0% - 100% 0 mhos 5 Yes - - -
11/26/2014 08:33 Ice Warning 28.2F - 32F 20 0% - 100% 0 mhos 5 None None - -
11/26/2014 08:31 Ice Warning 28.2F - 32F 20 0% - 100% 0 mhos 5 None None - -
11/26/2014 08:23 Ice Warning 28.0F - 32F 20 0% - 100% 0 mhos 5 Yes - - -
11/26/2014 08:13 Ice Warning 28.2F - 32F 20 0% - 100% 0 mhos 5 Yes - - -
11/26/2014 08:12 Ice Warning 28.0F - 32F 25 0% - 100% 0 mhos 5 Yes - - -
Date/Time
(MST)
Sf
Temp Chem Water Layer Surface Precipitation
Sf Sub Frz Factor Pct Depth IcePct Cond Salin Type Intens Accum Rate
11/26/2014 08:03 Ice Warning 28.4F - 32F 25 0% - 100% 0 mhos 5 Yes - - -
11/26/2014 08:01 Ice Warning 28.2F - 32F 25 0% - 100% 0 mhos 5 Yes - - -
11/26/2014 07:53 Ice Warning 28.0F - 32F 25 0% - 100% 0 mhos 5 Yes - - -
11/26/2014 07:43 Ice Warning 28.0F - 32F 25 0% - 100% 0 mhos 5 Yes - - -
11/26/2014 07:42 Ice Warning 28.2F - 32F 25 0% - 100% 0 mhos 5 Yes - - -
11/26/2014 07:33 Ice Warning 28.2F - 32F 30 0% - 100% 0 mhos 5 Yes - - -
11/26/2014 07:31 Ice Warning 28.0F - 32F 30 0% - 100% 0 mhos 6 Yes - - -
11/26/2014 07:23 Ice Warning 28.2F - 32F 30 0% - 100% 0 mhos 6 Yes - - -
11/26/2014 07:13 Ice Warning 28.2F - 32F 35 0% - 100% 0 mhos 6 Yes - - -
11/26/2014 07:03 Ice Warning 28.2F - 32F 30 0% - 100% 0 mhos 6 Yes - - -
11/26/2014 07:02 Ice Warning 28.2F - 32F 30 0% - 100% 0 mhos 6 Yes - - -
11/26/2014 06:53 Ice Warning 28.2F - 32F 30 0% - 100% 0 mhos 6 Yes - - -
11/26/2014 06:43 Ice Warning 28.2F - 32F 35 0% - 100% 0 mhos 6 Yes - - -
11/26/2014 06:33 Ice Warning 28.2F - 32F 40 0% - 100% 0 mhos 7 Yes - - -
11/26/2014 06:31 Ice Warning 28.2F - 32F 40 0% - 100% 0 mhos 7 Yes - - -
Date/Time
(MST)
Sf
Temp Chem Water Layer Surface Precipitation
Sf Sub Frz Factor Pct Depth IcePct Cond Salin Type Intens Accum Rate
11/26/2014 06:23 Ice Warning 28.2F - 32F 45 0% - 100% 0 mhos 7 Yes - - -
11/26/2014 06:13 Ice Warning 28.2F - 32F 40 0% - 100% 0 mhos 7 Yes - - -
11/26/2014 06:04 Ice Warning 28.2F - 32F 45 0% - 100% 0 mhos 7 Yes - - -
11/26/2014 06:03 Ice Warning 28.2F - 32F 45 0% - 100% 0 mhos 7 Yes - - -
11/26/2014 05:53 Ice Warning 28.2F - 32F 45 0% - 100% 0 mhos 7 Yes - - -
11/26/2014 05:43 Ice Warning 28.2F - 32F 45 0% - 100% 0 mhos 7 None None - -
11/26/2014 05:33 Ice Warning 28.2F - 32F 50 0% - 100% 0 mhos 7 Yes - - -
11/26/2014 05:31 Ice Warning 28.2F - 32F 45 0% - 100% 0 mhos 7 Yes - - -
11/26/2014 05:23 Ice Warning 28.2F - 32F 50 0% - 100% 0 mhos 7 Yes - - -
11/26/2014 05:13 Ice Warning 28.2F - 32F 50 0% - 100% 0 mhos 7 Yes - - -
11/26/2014 05:03 Ice Warning 28.2F - 32F 55 0% - 100% 0 mhos 7 Yes - - -
11/26/2014 05:01 Ice Warning 28.2F - 32F 55 0% - 100% 0 mhos 7 Yes - - -
11/26/2014 04:53 Ice Warning 28.4F - 32F 55 0% - 100% 0 mhos 7 Yes - - -
Change End Date:
Copyright © 1998-2005 Surface Systems, Inc.
All Rights Reserved
Send comments about the data to:
SCAN Web ® is a registered trademark of Surface Systems, Inc.
SCAN Web Version 5.6